213P/Van Ness (2023)

Japanese version
Home page
Updated on August 16, 2023

---------------------------------------------------------------------

* Profile

* Orbital Elements

Epoch 2023 Oct. 23.0 TT = JDT 2460240.5
T 2023 Nov. 11.50194 TT                                 MPCW
q   1.9801720            (2000.0)            P               Q
n   0.16114841     Peri.    5.77380     +0.73066118     +0.66917442
a   3.3444037      Node   311.27201     -0.63339156     +0.59033880
e   0.4079148      Incl.   10.38054     -0.25485166     +0.45133768
P   6.12
From 2242 observations 2011 Apr. 5-2018 Dec. 10, mean residual 0".6.
     Nongravitational parameters A1 = +2.54, A2 = -0.9837, A3 = -0.4598.

* Finding Charts

* Magnitudes Graph

        m1 = -5.0 + 5 log d + 60   log r  [   ,-95]  (             - 2023 Aug.  8)
        m1 =  8.0 + 5 log d + 20.0 log r  [-95,   ]  (2023 Aug.  8 -             )

---------------------------------------------------------------------

The orbital elements are published on M.P.E.C. 2019-J142.
The charts are made with StellaNavigator Ver.11 (AstroArts).
The magnitudes graphs are made with Comet for Windows.

---------------------------------------------------------------------

Copyright(C) Seiichi Yoshida (comet@aerith.net). All rights reserved.